Other Surface Observations
Issued by NWS

Home | Current Version | Previous Version | Text Only | Print | Product List | Glossary On
Versions: 1 2 3 4 5 6 7 8 9 10 11 12 13 14 15 16 17 18 19 20 21 22 23 24 25 26 27 28 29 30 31 32 33 34 35 36 37 38 39 40 41 42 43 44 45 46 47 48 49 50
915
SXUS52 KTAE 240418
OSOTAE
OSOTAE
North Florida/South Alabama/Southwest Georgia Weather Roundup
National Weather Service Tallahassee Florida
1100 PM EST TUE JAN 23 2018

Note: "fair" indicates few or no clouds below 12,000 feet with no
significant weather and/or obstructions to visibility.

!FLZ017-115-028-034-025-240500
...North Florida...

CITY           SKY/WX    TMP DP  RH WIND       PRES   REMARKS
TALLAHASSEE    FAIR      49  35  58 NW8       30.16R
APALACHICOLA   FAIR      50  44  80 N8        30.16R
PERRY          FAIR      52  36  54 NW3       30.15R
CROSS CITY     FAIR      41  41  99 CALM      30.18R
JACKSONVILLE   FAIR      50  43  77 W3        30.11R
$$

!FLZ112-006-005-002-011-240500
...Florida Panhandle...

CITY           SKY/WX    TMP DP  RH WIND       PRES   REMARKS
MARIANNA       FAIR      47  33  58 NW3       30.18R
BONIFAY        NOT AVBL
PANAMA CITY NW FAIR      44  38  79 NW6       30.19R WCI  41
TYNDALL AFB    FAIR      48  40  73 N8        30.18R WCI  44
TYND DRONE APT FAIR      52  40  63 NW6       30.18R
DE FUNIAK SPR  FAIR      46  33  61 NW5       30.21R WCI  43
EGLIN AFB      PTCLDY    47  34  59 N8        30.20R WCI  43
DESTIN         FAIR      53  35  50 N9        30.20R
HURLBURT       CLEAR     44  36  72 N7        30.19R WCI  40
CRESTVIEW      FAIR      39  34  82 CALM      30.23R
PENSACOLA      FAIR      49  34  56 NW7       30.21R
$$

!ALZ063-066-240500
...South Alabama...

CITY           SKY/WX    TMP DP  RH WIND       PRES   REMARKS
DOTHAN         FAIR      46  34  62 MISG      30.21R
OZARK CAIRNS   FAIR      46  31  55 NW3       30.19R
FT RUCKER HELI FAIR      47  33  57 NW5       30.19R
RUCKER HELI 3    N/A     46  33  58 N5        30.19R WCI  44
RUCKER HELI 2  FAIR      47  33  58 N3        30.18R
FLORALA APT    FAIR      39  34  82 CALM      30.23R
ANDALUSIA      FAIR      48  32  53 NW6       30.20R
TROY           FAIR      40  32  73 CALM      30.20R
EUFALA         FAIR      47  33  58 VRB3      30.18R
MOBILE         FAIR      48  30  49 NW8       30.25R WCI  44
$$

!GAZ120>161-240500
...Southwest and South Central Georgia...

CITY           SKY/WX    TMP DP  RH WIND       PRES   REMARKS
THOMASVILLE    FAIR      50  34  53 N7        30.17R
BAINBRIDGE     FAIR      46  37  71 NW5       30.18R WCI  44
MOODY AFB      FAIR      50  33  53 NW8       30.13R
VALDOSTA       FAIR      43  32  65 CALM      30.15R
MOULTRIE       FAIR      52  34  50 NW7       30.16S
BLAKELY        FAIR      50  32  50 CALM      30.19R
ALBANY         FAIR      50  32  50 NW8       30.18R
TIFTON         FAIR      50  34  54 NW10      30.15R
FITZGERALD     FAIR      52  35  52 NW9       30.16R
CORDELE        FAIR      52  32  45 NW5       30.17R
AMERICUS       FAIR      45  28  53 W3        30.18R
HOMERVILLE     FAIR      45  36  70 NW8       30.14R WCI  40
$$

!GMZ750-755-770-775-240500
...Coastal and Buoy Obs...

STATION/POSITION TIME  TEMP    WIND        PRES    VSBY  WAVE
                       AIR SEA DIR/SP/G                  HT/PER
                 (UTC) (F)     (DEG/KT/KT) (MB)    (MI)  (FT/S)
KEATON BEACH     0400   56     330/  5/  7 1020.4R
CEDAR KEY        0400   55     320/  5/  7 1020.5R
C TOWER          0400   56     340/ 15/ 17 1021.2R
APALACHICOLA BUO NOT AVBL
PANAMA CITY BUOY 0350   63 68  340/ 19/ 21 1020.8R         4/ 6
MOBILE BUOY      0400   62 66  360/ 16/ 19 1022.9
ORANGE BCH AL BU NOT AVBL
$$




USA.gov is the U.S. government's official web portal to all federal, state and local government web resources and services.